Temperature
20 21 21 21 21 21 21 20 20 20 20 20 20 20 20 20 20 20 19 19 19 19 19 19 19 19 19 18 18 18 18 18 18 18 18 18 17 17 17 17 17 17 17
21 21 21 21 21 21 20 20 20 20 20 20 20 19 19 19 19 19 19 19 19 19 19 19 19 19 19 19 18 18 18 18 18 18 18 18 17 17 17 17 17 17 17
21 21 21 21 21 20 20 20 20 20 20 19 19 19 19 19 19 19 19 19 19 19 19 19 19 19 19 19 18 18 18 18 18 18 18 17 17 17 17 17 17 17 17
22 21 21 21 21 20 20 20 20 20 19 19 19 19 19 19 19 19 19 19 19 19 19 19 19 19 19 19 18 18 18 18 17 18 18 18 18 18 18 18 18 17 17
21 21 21 21 21 20 20 20 20 20 19 19 19 19 19 19 19 19 19 19 19 19 19 19 19 19 19 19 18 18 18 17 17 18 18 18 18 18 18 18 18 17 17
21 21 21 21 20 20 20 20 20 20 19 19 19 19 19 19 19 19 19 19 19 19 19 19 19 19 19 19 18 18 18 17 18 18 18 18 18 18 18 18 18 18 17
21 21 21 20 20 20 20 20 20 20 20 19 19 19 19 19 19 19 19 19 19 19 19 19 19 19 19 19 18 18 18 17 18 18 18 18 18 18 18 18 18 18 18
21 21 21 20 20 20 20 20 20 20 20 19 19 19 19 19 19 19 19 19 19 19 19 19 19 19 19 19 19 18 18 18 18 18 18 18 18 18 18 18 18 18 18
21 21 21 20 20 20 20 20 20 20 19 19 19 19 19 19 19 18 18 18 19 19 19 19 19 19 19 19 19 18 18 18 18 18 18 18 18 18 18 18 18 18 18
21 21 21 20 20 20 20 20 20 19 19 19 19 19 18 18 18 18 18 18 18 18 18 18 19 19 19 19 19 19 18 18 18 18 18 18 18 18 18 18 18 18 18
21 21 21 20 20 20 20 20 19 19 19 19 19 19 18 18 18 18 18 18 18 18 18 18 18 18 19 19 19 19 18 18 18 18 18 18 18 18 18 18 18 18 18
20 20 20 20 20 20 19 19 19 19 19 18 18 18 18 18 18 18 18 18 18 18 18 18 18 18 18 18 18 18 18 18 18 18 18 18 18 18 18 18 18 18 18
20 20 20 20 20 19 19 19 19 19 18 18 18 18 18 18 18 17 17 17 17 18 18 18 18 18 18 18 18 18 18 18 18 18 18 18 18 18 18 18 18 18 18
20 20 19 20 19 19 19 19 19 18 18 18 18 18 18 17 17 17 17 17 17 17 17 17 17 17 17 17 17 18 17 17 17 18 18 18 18 17 18 18 18 18 18
20 19 19 19 19 19 19 19 19 18 18 18 18 18 18 17 17 17 17 17 17 17 17 17 17 17 17 17 17 17 17 17 17 17 17 17 17 17 17 17 17 17 17
20 20 19 19 19 19 19 19 18 18 18 18 17 17 17 17 17 17 17 17 17 16 16 16 16 16 16 16 16 17 17 17 17 17 17 17 17 17 17 17 17 17 17
20 20 19 19 19 19 19 19 18 18 18 18 17 17 17 17 17 17 16 16 16 16 16 16 16 16 16 16 16 16 16 16 16 17 17 17 17 17 17 17 17 17 17
20 20 19 19 19 19 19 18 18 18 18 17 17 17 17 17 17 16 16 16 16 16 16 16 15 15 16 16 16 16 16 16 16 16 16 16 16 17 17 17 17 17 17
20 20 19 19 19 19 18 18 18 17 17 17 17 17 17 16 16 16 16 16 15 15 15 15 15 15 15 15 15 16 16 16 16 16 16 16 16 17 17 17 17 16 16
19 19 19 19 19 18 18 18 17 17 17 17 17 16 16 16 16 16 15 15 15 15 15 15 15 15 15 15 15 15 15 16 16 16 16 16 16 16 17 17 17 16 16
19 19 19 19 18 18 18 18 17 17 17 17 16 16 16 16 16 15 15 15 15 14 14 14 14 14 14 14 15 15 15 16 16 16 16 16 16 16 16 16 16 17 16
19 19 19 19 18 18 18 18 17 17 17 16 16 16 16 15 15 15 15 15 14 14 14 14 14 14 14 14 14 14 14 15 16 16 16 16 16 16 16 16 16 16 16
19 19 19 19 18 18 18 17 17 17 16 16 16 16 15 15 15 15 14 14 14 14 13 13 13 13 13 13 13 13 13 13 14 15 15 15 16 16 16 16 16 16 16
19 19 19 19 19 18 18 17 17 17 16 16 16 15 15 15 14 14 14 14 14 13 13 13 13 13 13 13 13 13 13 13 13 13 15 15 15 15 15 15 16 16 16
20 19 19 19 18 18 18 17 17 17 16 16 15 15 15 14 14 14 14 13 13 13 13 13 13 12 12 12 12 12 13 13 13 12 13 14 15 15 15 15 15 15 16
20 19 19 19 18 18 17 17 17 16 16 15 15 15 14 14 14 14 13 13 13 13 13 13 12 12 12 12 12 12 12 12 12 12 12 13 13 14 14 15 15 15 15
Wind_Speed
10 14 21 22 22 22 22 21 21 21 21 21 20 20 20 20 19 18 18 17 16 15 14 14 13 14 14 14 14 15 15 15 15 16 16 16 15 17 18 18 17 16 18
14 18 22 22 22 22 22 21 21 20 20 20 19 19 18 18 17 17 17 16 15 14 14 13 13 13 13 13 13 13 14 14 14 15 16 15 15 15 16 17 16 15 17
17 18 21 22 22 22 21 21 21 20 20 19 19 18 18 17 16 16 15 15 14 14 13 13 12 12 12 12 12 12 12 12 13 13 14 13 14 15 17 17 17 17 16
18 18 19 22 22 22 21 20 20 20 19 19 18 17 17 16 15 15 14 14 13 13 12 12 11 11 10 10 10 10 9 9 9 10 11 11 13 16 17 17 16 16 16
15 17 20 22 22 21 21 20 20 19 19 18 17 17 16 15 15 14 13 13 13 12 11 11 10 10 9 8 8 7 7 6 5 6 10 11 13 16 16 16 15 15 15
13 16 20 22 21 21 20 20 20 19 18 18 17 16 15 14 14 13 13 12 12 11 11 10 9 8 7 6 6 6 6 6 5 8 12 13 14 16 16 15 15 14 14
13 15 19 21 21 20 20 20 19 19 18 17 16 15 14 14 13 12 12 11 11 10 10 9 8 7 6 5 4 4 5 6 6 8 11 13 14 16 16 15 14 14 14
15 14 18 21 21 20 19 19 19 18 17 16 16 14 13 12 12 11 11 11 10 10 9 8 7 6 5 3 2 2 3 4 6 7 10 12 15 16 16 15 14 14 14
13 13 13 16 18 19 19 18 18 17 16 15 14 13 12 11 11 10 10 10 9 9 9 8 7 6 5 4 2 1 1 2 3 5 8 11 15 16 16 15 15 14 14
11 10 10 13 15 15 16 17 17 16 15 14 13 12 11 10 9 9 9 9 9 8 8 8 7 7 6 5 4 3 2 1 2 4 7 11 15 16 17 16 15 15 14
12 10 9 10 12 13 14 14 15 14 13 12 11 11 9 8 8 8 8 9 9 9 8 8 8 7 7 6 6 6 4 2 2 4 8 12 16 17 17 17 17 16 15
13 11 10 9 9 11 11 12 11 11 11 10 9 8 7 6 6 6 7 8 9 8 8 8 7 7 6 5 6 6 5 4 4 5 8 12 15 17 17 17 17 17 16
13 12 10 9 9 9 7 9 8 8 8 7 7 7 6 5 3 3 3 4 5 6 5 5 6 6 5 4 5 5 5 5 5 6 7 11 14 17 17 17 17 17 18
11 10 9 8 7 7 8 7 7 6 6 6 7 8 7 4 3 3 3 3 3 3 3 3 3 4 4 5 4 4 4 5 6 6 7 11 14 17 18 18 18 18 18
11 10 9 9 9 7 7 6 7 6 7 8 9 9 9 5 3 2 2 1 2 2 2 2 3 3 2 3 4 4 5 6 6 7 8 13 16 18 19 20 20 21 20
11 11 9 9 8 8 6 5 5 7 9 8 8 8 8 6 4 3 1 1 0 1 2 2 3 2 1 2 2 3 5 6 7 9 9 13 17 20 21 21 21 22 22
11 10 10 9 8 8 7 6 6 8 8 7 7 9 8 7 6 4 2 1 1 1 1 1 1 1 1 1 2 3 4 5 6 8 11 12 15 19 22 22 22 22 23
11 10 9 9 8 7 6 5 5 7 8 7 8 9 9 9 8 5 3 1 2 3 3 1 1 1 1 2 3 3 3 3 5 7 9 12 14 15 19 22 23 23 24
10 10 9 9 8 7 6 5 6 6 6 8 9 9 9 9 8 6 3 2 4 4 2 2 2 1 1 2 3 3 3 4 4 5 6 10 13 14 15 19 22 24 24
10 10 9 8 7 7 5 5 4 4 4 6 7 8 9 8 8 7 4 4 5 3 3 3 2 2 1 2 3 4 4 4 3 4 5 6 9 12 15 15 16 19 23
9 9 8 8 6 5 4 4 4 3 3 3 3 7 8 8 8 6 4 3 3 3 3 3 2 3 3 3 3 4 5 4 3 3 3 2 4 8 11 13 14 14 15
8 8 7 8 7 6 4 4 3 3 2 2 2 4 6 7 7 6 4 3 3 3 4 4 3 2 3 3 2 2 4 5 4 3 3 2 3 3 4 8 11 12 14
9 9 9 8 7 7 6 4 4 4 4 3 2 1 1 4 6 6 5 4 3 3 2 2 2 3 2 3 2 2 1 3 4 4 4 4 4 3 3 4 6 10 12
10 9 9 9 8 7 6 6 6 4 3 2 2 1 1 1 3 5 5 5 3 3 2 1 2 1 2 1 2 1 2 3 1 4 5 4 5 5 5 4 5 7 9
11 10 9 9 8 7 7 7 7 5 4 2 2 1 0 1 1 3 5 4 3 2 2 1 1 1 1 1 1 1 1 1 1 1 4 6 5 5 5 5 4 5 7
10 9 9 9 8 8 8 8 8 7 5 4 2 1 0 1 1 2 4 4 3 2 2 1 1 1 1 1 2 2 1 1 2 1 3 4 5 5 5 4 4 4 7
Wind_Direction
150 153 145 138 133 129 125 121 117 115 113 111 110 109 109 108 108 108 108 108 107 106 104 103 101 99 99 99 100 102 105 107 109 109 108 109 111 113 113 112 109 109 110
147 150 144 139 136 133 130 127 124 122 121 119 117 116 115 114 113 113 112 110 109 107 106 105 103 101 101 100 101 103 106 109 110 110 107 106 111 115 116 114 112 115 114
139 144 142 139 138 135 134 132 130 128 127 126 125 124 123 121 119 118 116 114 112 110 109 108 106 104 102 101 101 101 102 106 109 109 105 103 107 113 118 117 116 116 115
136 140 142 140 139 138 137 136 134 133 132 132 132 131 129 128 126 123 121 119 117 115 113 112 110 107 105 102 99 98 97 99 107 115 117 115 113 117 119 119 118 118 118
131 136 142 140 140 140 139 139 138 137 136 136 136 136 134 133 131 129 128 125 123 120 119 116 114 111 107 103 97 91 85 79 86 116 131 125 123 125 124 124 123 122 122
128 134 140 139 138 139 139 140 140 139 139 139 139 139 139 139 137 135 133 132 131 129 127 124 122 119 113 105 94 80 69 56 62 112 133 135 134 133 131 131 130 128 127
131 134 138 137 137 138 139 140 141 141 141 142 142 143 143 144 143 142 140 139 140 139 137 134 132 130 128 118 97 70 54 46 72 122 141 145 144 141 139 139 137 136 134
136 135 138 138 138 138 140 141 143 144 145 146 147 148 149 149 150 148 147 148 147 149 148 148 148 149 150 148 130 65 40 43 81 121 149 156 154 149 148 147 146 144 143
138 136 135 138 139 140 141 143 145 146 148 150 151 152 154 155 156 156 156 158 160 161 163 166 168 172 180 189 208 247 7 42 94 141 162 166 166 160 157 155 156 155 153
139 139 139 140 141 143 146 149 150 151 152 154 156 158 161 163 167 171 173 175 176 176 178 182 189 193 201 213 229 250 280 353 128 165 176 180 178 171 168 166 165 165 163
146 149 149 147 148 150 151 156 155 155 157 159 162 165 168 172 179 189 191 189 189 188 190 196 207 212 214 225 237 245 255 231 187 190 186 192 187 181 178 175 174 174 174
157 161 161 157 157 159 160 154 156 156 160 164 170 168 168 173 189 192 195 198 199 198 199 207 217 222 222 231 246 248 235 225 203 202 200 199 196 190 185 184 183 182 182
162 163 162 161 162 163 147 151 158 154 156 158 155 148 144 135 145 163 172 189 196 199 203 213 219 222 218 225 238 239 225 223 216 213 215 208 202 199 193 192 191 192 191
154 150 145 142 142 141 133 140 144 139 139 140 139 133 120 110 106 117 142 162 180 197 207 215 214 223 228 234 238 235 223 216 215 218 216 209 207 205 200 200 198 199 200
143 137 135 130 127 125 121 127 125 127 129 131 128 125 123 122 123 112 126 165 199 201 207 222 226 236 239 245 245 238 227 222 217 216 220 210 211 212 209 209 206 205 205
140 136 136 126 123 121 122 122 129 131 133 129 124 124 118 116 110 100 88 81 307 237 229 233 236 239 251 256 264 252 238 231 224 216 214 215 215 216 217 217 215 213 211
142 136 132 127 123 122 122 124 127 131 130 126 127 124 115 105 97 94 85 66 10 351 326 340 333 352 316 303 288 274 256 242 234 222 217 218 220 223 224 224 223 221 219
137 134 133 130 126 124 121 120 125 126 126 132 133 124 117 111 105 97 85 63 34 42 35 43 42 37 356 330 306 291 275 261 252 239 227 224 223 226 229 229 227 226 225
135 132 127 128 131 130 125 124 126 126 128 137 134 128 125 118 109 102 93 67 54 52 36 32 46 53 1 334 309 296 294 278 262 260 241 232 227 228 230 232 230 229 230
132 129 131 131 135 131 121 108 98 101 117 135 142 144 137 126 115 107 92 66 59 54 32 26 20 17 8 334 323 323 301 284 273 264 256 248 238 235 233 232 233 234 234
132 133 139 137 142 133 122 120 119 129 139 139 160 154 146 136 124 114 101 78 69 64 37 22 25 18 360 1 11 335 321 312 305 287 285 273 259 251 240 232 228 228 233
147 147 147 147 150 146 140 142 143 139 136 139 136 147 153 147 142 136 124 111 91 67 40 39 48 40 359 23 45 14 344 338 336 330 332 322 308 283 259 246 233 227 228
161 165 161 159 156 153 143 121 97 80 71 69 83 122 176 161 155 149 141 131 115 100 70 47 67 84 16 350 44 95 48 303 313 322 338 348 340 325 307 286 257 242 234
177 172 164 164 159 153 141 132 130 131 135 163 169 179 231 164 164 163 153 143 131 117 103 82 101 105 100 353 346 30 187 200 258 314 322 333 338 333 317 307 291 268 249
179 175 171 166 160 155 146 139 129 129 142 143 123 111 14 347 84 154 148 134 129 125 124 96 86 91 142 181 258 304 330 341 162 204 300 322 330 319 314 302 292 288 274
180 177 171 166 165 161 151 144 142 144 145 133 122 118 23 18 38 101 134 136 141 148 165 193 201 231 225 233 234 223 215 242 267 238 266 298 306 304 311 307 308 300 293
Height
1535 1537 1540 1542 1543 1544 1545 1547 1548 1549 1550 1551 1552 1553 1554 1555 1556 1557 1558 1558 1559 1560 1560 1561 1561 1561 1562 1562 1562 1563 1563 1563 1564 1564 1565 1566 1566 1567 1568 1568 1569 1569 1570
1533 1537 1540 1542 1544 1545 1546 1548 1549 1550 1551 1552 1553 1554 1555 1556 1557 1558 1558 1559 1560 1561 1561 1562 1562 1563 1563 1563 1564 1564 1565 1565 1566 1567 1567 1568 1569 1569 1570 1570 1571 1571 1572
1533 1537 1541 1543 1545 1546 1547 1549 1550 1551 1552 1553 1554 1555 1556 1557 1558 1558 1559 1560 1561 1562 1562 1563 1563 1564 1564 1565 1565 1566 1567 1567 1568 1569 1570 1570 1571 1571 1571 1572 1572 1573 1574
1534 1538 1541 1544 1545 1546 1548 1549 1550 1551 1553 1554 1555 1556 1557 1558 1558 1559 1560 1561 1562 1562 1563 1564 1564 1565 1566 1566 1567 1568 1568 1569 1570 1570 1571 1572 1573 1573 1573 1574 1574 1575 1575
1535 1539 1542 1544 1546 1547 1548 1550 1551 1552 1553 1554 1555 1556 1557 1558 1559 1560 1561 1562 1562 1563 1564 1565 1565 1566 1567 1568 1569 1569 1570 1571 1571 1572 1573 1573 1574 1574 1575 1575 1576 1576 1577
1536 1539 1542 1545 1546 1548 1549 1550 1551 1553 1554 1555 1556 1557 1558 1559 1559 1560 1561 1562 1563 1564 1565 1565 1566 1567 1568 1569 1570 1571 1571 1572 1572 1573 1573 1574 1575 1576 1576 1577 1577 1578 1578
1537 1540 1543 1545 1547 1548 1550 1551 1552 1553 1554 1555 1556 1557 1558 1559 1560 1561 1561 1562 1563 1564 1565 1566 1567 1568 1569 1570 1571 1572 1572 1573 1573 1573 1574 1575 1576 1576 1577 1578 1578 1579 1580
1538 1541 1543 1546 1547 1549 1550 1551 1552 1554 1555 1556 1557 1558 1559 1559 1560 1561 1562 1563 1564 1564 1565 1566 1567 1568 1569 1570 1571 1572 1573 1573 1574 1574 1575 1576 1576 1577 1578 1578 1579 1580 1581
1540 1541 1543 1546 1548 1549 1551 1552 1553 1554 1555 1556 1557 1558 1559 1560 1561 1561 1562 1563 1564 1564 1565 1566 1567 1568 1569 1570 1571 1572 1573 1574 1574 1574 1575 1576 1577 1577 1578 1579 1580 1580 1581
1541 1542 1544 1546 1548 1550 1551 1553 1554 1554 1556 1557 1558 1558 1559 1560 1561 1561 1562 1563 1563 1564 1565 1566 1567 1568 1569 1570 1571 1572 1573 1573 1574 1574 1575 1576 1577 1578 1579 1580 1580 1581 1582
1541 1543 1545 1546 1548 1550 1551 1553 1554 1555 1556 1557 1558 1559 1559 1560 1561 1561 1562 1562 1563 1563 1564 1565 1566 1567 1568 1569 1570 1570 1571 1572 1573 1574 1574 1575 1576 1577 1578 1579 1580 1581 1582
1540 1542 1544 1546 1548 1550 1551 1552 1553 1555 1556 1557 1558 1558 1559 1560 1561 1561 1561 1562 1562 1562 1563 1564 1564 1565 1566 1567 1568 1569 1570 1571 1571 1572 1573 1574 1575 1576 1577 1578 1579 1581 1582
1539 1541 1544 1546 1548 1549 1551 1552 1553 1554 1555 1556 1557 1558 1558 1559 1560 1560 1560 1561 1561 1561 1562 1562 1563 1563 1564 1565 1566 1567 1568 1568 1569 1570 1571 1572 1573 1574 1575 1577 1578 1580 1581
1538 1541 1543 1545 1547 1549 1550 1552 1553 1554 1555 1556 1556 1557 1557 1558 1558 1559 1559 1560 1560 1560 1560 1561 1561 1561 1562 1563 1564 1565 1566 1566 1567 1568 1569 1570 1571 1572 1573 1575 1576 1578 1579
1539 1541 1543 1545 1547 1548 1550 1551 1552 1553 1554 1555 1555 1556 1556 1557 1557 1557 1558 1558 1558 1558 1558 1558 1558 1559 1559 1560 1561 1562 1563 1564 1565 1565 1566 1567 1568 1569 1570 1571 1573 1575 1577
1538 1540 1543 1545 1547 1548 1549 1551 1551 1552 1553 1554 1554 1555 1555 1555 1556 1556 1556 1556 1556 1556 1556 1556 1556 1556 1557 1557 1558 1559 1560 1561 1561 1562 1563 1564 1565 1566 1567 1569 1570 1572 1573
1538 1541 1543 1545 1547 1548 1549 1550 1551 1552 1552 1553 1554 1554 1554 1554 1554 1554 1555 1554 1554 1554 1554 1554 1554 1554 1554 1555 1556 1556 1557 1558 1558 1559 1560 1561 1561 1562 1563 1565 1566 1568 1570
1538 1540 1542 1545 1547 1548 1549 1550 1551 1551 1552 1552 1553 1553 1553 1554 1553 1553 1553 1553 1553 1553 1552 1552 1552 1552 1552 1552 1553 1553 1554 1554 1555 1556 1557 1557 1558 1559 1560 1561 1562 1564 1566
1538 1539 1542 1544 1546 1547 1548 1549 1550 1551 1551 1552 1552 1553 1553 1553 1553 1552 1552 1552 1551 1551 1551 1550 1550 1550 1550 1550 1550 1550 1551 1551 1552 1553 1553 1554 1555 1556 1557 1557 1558 1560 1561
1538 1540 1542 1543 1545 1547 1547 1548 1549 1550 1551 1551 1552 1552 1553 1552 1552 1551 1551 1550 1550 1549 1549 1549 1549 1548 1548 1548 1548 1548 1548 1548 1549 1549 1550 1551 1551 1552 1553 1554 1555 1555 1556
1537 1539 1541 1543 1544 1546 1547 1547 1548 1549 1550 1551 1551 1552 1552 1551 1551 1550 1549 1548 1548 1547 1547 1547 1547 1547 1547 1546 1546 1545 1545 1546 1546 1546 1547 1547 1548 1548 1549 1550 1551 1551 1552
1536 1539 1541 1542 1544 1545 1546 1547 1548 1549 1549 1550 1550 1550 1550 1550 1549 1549 1548 1547 1547 1546 1546 1545 1545 1545 1545 1545 1544 1543 1543 1544 1543 1544 1544 1544 1544 1545 1546 1546 1547 1547 1548
1536 1538 1540 1541 1543 1544 1545 1546 1547 1548 1548 1549 1549 1549 1549 1548 1548 1547 1547 1546 1546 1545 1545 1544 1544 1544 1544 1544 1544 1544 1543 1542 1541 1541 1541 1542 1542 1542 1542 1543 1543 1544 1545
1535 1537 1539 1540 1542 1543 1544 1545 1545 1546 1546 1547 1547 1547 1547 1546 1546 1546 1546 1545 1545 1544 1544 1543 1543 1543 1542 1542 1542 1542 1543 1542 1542 1539 1539 1539 1539 1539 1540 1540 1540 1540 1541
1534 1536 1537 1539 1540 1541 1542 1543 1543 1544 1544 1544 1545 1545 1545 1544 1544 1544 1544 1544 1543 1543 1542 1542 1541 1541 1540 1540 1540 1540 1540 1540 1540 1539 1536 1536 1536 1537 1537 1537 1537 1537 1537
1532 1534 1536 1537 1538 1539 1540 1541 1541 1541 1542 1542 1542 1542 1542 1542 1542 1542 1542 1542 1541 1541 1540 1540 1539 1539 1538 1538 1537 1537 1537 1537 1537 1536 1535 1533 1532 1532 1533 1533 1533 1533 1534